Biloxi, MS

1:54 PM CDT on June 25, 2017 (GMT -0500)
Keesler Air Force Base

Weather History for KBIX - April, 2015

Change the Weather History Date:

Monday, April 27, 2015

  Actual Average Record
Temperature  
Mean Temperature 68 °F -  
Max Temperature 75 °F 77 °F 87 °F (1960)
Min Temperature 60 °F 59 °F 44 °F (1976)
Cooling Degree Days 2    
Growing Degree Days 18 (Base 50)    
Moisture  
Dew Point 67 °F    
Average Humidity 97    
Maximum Humidity 100    
Minimum Humidity 82    
Precipitation  
Precipitation 1.08 in - - ()
Sea Level Pressure  
Sea Level Pressure 29.78 in    
Wind  
Wind Speed 7 mph (NE)    
Max Wind Speed 23 mph    
Max Gust Speed 32 mph    
Visibility 7 miles    
Events Fog , Rain , Thunderstorm    
Averages and records for this station are not official NWS values.
T = Trace of Precipitation, MM = Missing Value Source: NWS Daily Summary

Daily Weather History Graph

Daily Weather History Graph

Search for Another Location

Airport or City:

Trip Planner

Search our weather history database for the weather conditions in past years. The results will help you decide how hot, cold, wet, or windy it might be!

Date:

Astronomy

Apr. 27, 2015 Rise Set
Actual Time 6:16 AM CDT 7:30 PM CDT
Civil Twilight 5:50 AM CDT 7:56 PM CDT
Nautical Twilight 5:20 AM CDT 8:26 PM CDT
Astronomical Twilight 4:49 AM CDT 8:57 PM CDT
Moon 2:04 PM CDT (4/27) 2:30 AM CDT (4/27)
Length of Visible Light 14h 05m
Length of Day
13h 14m
Waxing Gibbous, 66% of the Moon is Illuminated
Apr 27
Waxing Gibbous
May 3
Full
May 11
Last Quarter
May 17
New
May 25
First Quarter

Hourly Weather History & Observations

Time (CDT) Temp. Dew Point Humidity Pressure Visibility Wind Dir Wind Speed Gust Speed Precip Events Conditions
12:58 AM 75.2 °F 75.2 °F 100% 29.73 in 10.0 mi NNE 2.3 mph - N/A   Scattered Clouds
1:08 AM 75.2 °F 75.2 °F 100% 29.72 in 8.0 mi NNE 1.2 mph - N/A   Partly Cloudy
1:18 AM 75.2 °F 75.2 °F 100% 29.71 in 6.0 mi NE 2.3 mph - N/A   Partly Cloudy
1:43 AM 73.4 °F 73.4 °F 100% 29.71 in 5.0 mi NE 2.3 mph - N/A   Clear
1:53 AM 73.4 °F 73.4 °F 100% 29.71 in 6.0 mi East 1.2 mph - N/A   Clear
1:58 AM 73.9 °F 73.9 °F 100% 29.72 in 7.0 mi Calm Calm - N/A   Scattered Clouds
2:03 AM 73.4 °F 73.4 °F 100% 29.71 in 7.0 mi NE 2.3 mph - N/A   Scattered Clouds
2:18 AM 73.4 °F 73.4 °F 100% 29.70 in 4.0 mi ENE 2.3 mph - N/A   Partly Cloudy
2:28 AM 73.4 °F 73.4 °F 100% 29.70 in 3.0 mi NE 3.5 mph - N/A   Clear
2:33 AM 73.4 °F 73.4 °F 100% 29.70 in 2.5 mi NNE 2.3 mph - N/A   Clear
2:38 AM 73.4 °F 73.4 °F 100% 29.70 in 4.0 mi NNE 3.5 mph - N/A   Clear
2:43 AM 73.4 °F 73.4 °F 100% 29.70 in 5.0 mi NE 3.5 mph - N/A   Partly Cloudy
2:48 AM 73.4 °F 73.4 °F 100% 29.70 in 5.0 mi NE 2.3 mph - N/A   Scattered Clouds
2:58 AM 73.4 °F 73.4 °F 100% 29.71 in 5.0 mi NE 1.2 mph - N/A   Partly Cloudy
3:08 AM 73.4 °F 73.4 °F 100% 29.70 in 3.0 mi NE 2.3 mph - N/A   Partly Cloudy
3:13 AM 73.4 °F 73.4 °F 100% 29.71 in 2.5 mi NE 3.5 mph - N/A   Scattered Clouds
3:18 AM 73.4 °F 73.4 °F 100% 29.71 in 3.0 mi NNE 3.5 mph - N/A   Scattered Clouds
3:23 AM 73.4 °F 73.4 °F 100% 29.71 in 5.0 mi NNE 2.3 mph - N/A   Partly Cloudy
3:33 AM 73.4 °F 73.4 °F 100% 29.70 in 3.0 mi NE 4.6 mph - N/A   Mostly Cloudy
3:38 AM 73.4 °F 73.4 °F 100% 29.71 in 1.5 mi ENE 2.3 mph - N/A   Mostly Cloudy
3:43 AM 71.6 °F 71.6 °F 100% 29.71 in 0.8 mi NE 2.3 mph - N/A   Mostly Cloudy
3:48 AM 71.6 °F 71.6 °F 100% 29.71 in 0.5 mi NE 3.5 mph - N/A Fog Fog
3:58 AM 72.3 °F 72.3 °F 100% 29.72 in 0.8 mi ENE 2.3 mph - N/A   Mist
4:08 AM 71.6 °F 71.6 °F 100% 29.72 in 0.5 mi ENE 2.3 mph - N/A Fog Fog
4:33 AM 71.6 °F 71.6 °F 100% 29.72 in 1.0 mi NNE 8.1 mph - N/A   Mist
4:38 AM 71.6 °F 71.6 °F 100% 29.72 in 2.0 mi NNE 8.1 mph - N/A   Overcast
4:43 AM 71.6 °F 71.6 °F 100% 29.73 in 3.0 mi NNE 6.9 mph - N/A   Overcast
4:48 AM 71.6 °F 71.6 °F 100% 29.73 in 4.0 mi NNE 8.1 mph - N/A   Overcast
4:53 AM 71.6 °F 71.6 °F 100% 29.73 in 5.0 mi NNE 6.9 mph - N/A   Overcast
4:58 AM 70.9 °F 70.9 °F 100% 29.75 in 7.0 mi NE 5.8 mph - N/A   Overcast
5:03 AM 71.6 °F 71.6 °F 100% 29.74 in 9.0 mi NE 4.6 mph - N/A   Overcast
5:13 AM 69.8 °F 69.8 °F 100% 29.74 in 10.0 mi NE 3.5 mph - N/A   Mostly Cloudy
5:28 AM 69.8 °F 69.8 °F 100% 29.74 in 10.0 mi NE 8.1 mph - N/A   Scattered Clouds
5:58 AM 69.1 °F 69.1 °F 100% 29.75 in 10.0 mi ENE 11.5 mph - N/A   Partly Cloudy
6:58 AM 67.5 °F 66.2 °F 96% 29.76 in 10.0 mi ENE 9.2 mph - N/A   Clear
7:58 AM 68.0 °F 64.6 °F 89% 29.79 in 10.0 mi ENE 12.7 mph - N/A   Scattered Clouds
8:58 AM 68.4 °F 63.5 °F 84% 29.80 in 10.0 mi ENE 11.5 mph - N/A   Mostly Cloudy
9:58 AM 68.2 °F 62.6 °F 82% 29.78 in 10.0 mi ENE 13.8 mph - N/A   Mostly Cloudy
10:39 AM 68.0 °F 62.6 °F 83% 29.76 in 10.0 mi NE 16.1 mph - N/A Thunderstorm Thunderstorm
10:53 AM 68.0 °F 62.6 °F 83% 29.79 in 10.0 mi NE 15.0 mph - N/A Rain , Thunderstorm Light Thunderstorms and Rain
10:58 AM 67.3 °F 62.4 °F 84% 29.81 in 10.0 mi NE 15.0 mph - 0.00 in Rain , Thunderstorm Light Thunderstorms and Rain
10:59 AM 68.0 °F 62.6 °F 83% 29.80 in 10.0 mi NE 15.0 mph - N/A Rain , Thunderstorm Light Rain
11:06 AM 66.2 °F 62.6 °F 88% 29.80 in 8.0 mi NE 15.0 mph - N/A Rain , Thunderstorm Light Thunderstorms and Rain
11:22 AM 66.2 °F 64.4 °F 94% 29.83 in 10.0 mi North 12.7 mph - N/A Rain , Thunderstorm Light Thunderstorms and Rain
11:28 AM 66.2 °F 64.4 °F 94% 29.85 in 10.0 mi North 15.0 mph 19.6 mph N/A Rain , Thunderstorm Light Rain
11:30 AM 64.4 °F 64.4 °F 100% 29.85 in 8.0 mi NNE 18.4 mph 23.0 mph N/A Rain , Thunderstorm Light Thunderstorms and Rain
11:55 AM 64.4 °F 64.4 °F 100% 29.89 in 2.5 mi North 19.6 mph 24.2 mph N/A Rain , Thunderstorm Heavy Thunderstorms and Rain
11:58 AM 63.9 °F 63.5 °F 99% 29.90 in 2.5 mi North 21.9 mph 27.6 mph 0.21 in Rain , Thunderstorm Heavy Thunderstorms and Rain
12:03 PM 62.6 °F 62.6 °F 100% 29.89 in 3.0 mi North 23.0 mph 28.8 mph N/A Rain , Thunderstorm Heavy Thunderstorms and Rain
12:12 PM 62.6 °F 62.6 °F 100% 29.91 in 3.0 mi North 20.7 mph 28.8 mph N/A Rain Heavy Rain
12:27 PM 62.6 °F 62.6 °F 100% 29.91 in 2.0 mi North 23.0 mph 32.2 mph N/A Rain Heavy Rain
12:28 PM 62.6 °F 62.6 °F 100% 29.91 in 2.0 mi North 23.0 mph 32.2 mph N/A Rain , Thunderstorm Heavy Thunderstorms and Rain
12:33 PM 60.8 °F 60.8 °F 100% 29.91 in 1.8 mi North 18.4 mph 32.2 mph N/A Rain , Thunderstorm Heavy Thunderstorms and Rain
12:38 PM 60.8 °F 60.8 °F 100% 29.92 in 2.5 mi North 20.7 mph 28.8 mph N/A Rain , Thunderstorm Thunderstorms and Rain
12:43 PM 60.8 °F 60.8 °F 100% 29.92 in 4.0 mi North 18.4 mph 26.5 mph N/A Rain , Thunderstorm Thunderstorms and Rain
12:58 PM 61.0 °F 61.0 °F 100% 29.93 in 3.0 mi North 18.4 mph 25.3 mph 0.29 in Rain , Thunderstorm Heavy Thunderstorms and Rain
1:17 PM 60.8 °F 60.8 °F 100% 29.93 in 5.0 mi NNE 11.5 mph 23.0 mph N/A Rain Rain
1:19 PM 60.8 °F 60.8 °F 100% 29.92 in 5.0 mi NNE 11.5 mph 23.0 mph N/A Rain , Thunderstorm Thunderstorms and Rain
1:46 PM 60.8 °F 60.8 °F 100% 29.87 in 6.0 mi East 17.3 mph 21.9 mph N/A Rain Rain
1:58 PM 61.5 °F 61.5 °F 100% 29.89 in 5.0 mi ESE 10.4 mph 24.2 mph 0.23 in Rain , Thunderstorm Rain
2:36 PM 64.4 °F 62.6 °F 94% 29.70 in 10.0 mi ESE 19.6 mph 32.2 mph N/A   Scattered Clouds
2:58 PM 66.4 °F 64.0 °F 92% 29.69 in 10.0 mi SE 18.4 mph 32.2 mph 0.07 in   Clear
3:50 PM 69.8 °F 66.2 °F 88% 29.70 in 10.0 mi NE 12.7 mph - N/A   Clear
3:58 PM 69.4 °F 64.8 °F 85% 29.70 in 10.0 mi NNE 10.4 mph - 0.01 in   Clear
4:15 PM 68.0 °F 64.4 °F 88% 29.72 in 10.0 mi North 13.8 mph - N/A   Scattered Clouds
4:36 PM 66.2 °F 62.6 °F 88% 29.75 in 10.0 mi NNE 11.5 mph 23.0 mph N/A   Mostly Cloudy
4:58 PM 66.7 °F 63.9 °F 90% 29.75 in 10.0 mi NE 9.2 mph - N/A   Scattered Clouds
5:26 PM 66.2 °F 62.6 °F 88% 29.75 in 10.0 mi ENE 5.8 mph - N/A Rain Light Rain
5:31 PM 66.2 °F 62.6 °F 88% 29.76 in 10.0 mi NNE 6.9 mph - N/A Rain Light Rain
5:56 PM 66.2 °F 64.4 °F 94% 29.74 in 10.0 mi ENE 13.8 mph - N/A Rain Light Rain
5:58 PM 65.5 °F 63.7 °F 94% 29.74 in 10.0 mi ENE 12.7 mph - 0.00 in Rain Light Rain
6:03 PM 64.4 °F 64.4 °F 100% 29.74 in 10.0 mi East 9.2 mph - N/A Rain Light Rain
6:08 PM 64.4 °F 64.4 °F 100% 29.75 in 10.0 mi NE 5.8 mph - N/A Rain Light Rain
6:15 PM 64.4 °F 64.4 °F 100% 29.75 in 10.0 mi ENE 8.1 mph - N/A   Scattered Clouds
6:58 PM 64.9 °F 63.9 °F 96% 29.73 in 10.0 mi East 10.4 mph - 0.01 in   Mostly Cloudy
7:32 PM 64.4 °F 64.4 °F 100% 29.73 in 10.0 mi NE 8.1 mph - N/A Rain Light Rain
7:55 PM 64.4 °F 64.4 °F 100% 29.80 in 10.0 mi NNW 10.4 mph - N/A   Overcast
7:58 PM 64.6 °F 64.4 °F 99% 29.81 in 10.0 mi North 12.7 mph - 0.00 in   Overcast
8:01 PM 64.4 °F 64.4 °F 100% 29.80 in 6.0 mi North 12.7 mph - N/A Rain Light Rain
8:58 PM 63.1 °F 63.1 °F 100% 29.83 in 10.0 mi NNE 6.9 mph - 0.05 in Rain Light Rain
9:08 PM 62.6 °F 62.6 °F 100% 29.81 in 10.0 mi NNE 6.9 mph - N/A Rain Light Rain
9:18 PM 62.6 °F 62.6 °F 100% 29.81 in 10.0 mi NE 6.9 mph - N/A Rain Light Rain
9:53 PM 62.6 °F 62.6 °F 100% 29.82 in 10.0 mi NE 6.9 mph - N/A Rain Light Rain
9:58 PM 62.2 °F 62.2 °F 100% 29.83 in 10.0 mi NE 8.1 mph - 0.04 in Rain Light Rain
10:33 PM 62.6 °F 62.6 °F 100% 29.83 in 8.0 mi ENE 8.1 mph - N/A Rain Rain
10:58 PM 62.4 °F 62.4 °F 100% 29.84 in 9.0 mi ESE 5.8 mph - 0.10 in Rain Rain
11:03 PM 62.6 °F 62.6 °F 100% 29.83 in 10.0 mi ESE 6.9 mph - N/A Rain Light Rain
11:13 PM 62.6 °F 62.6 °F 100% 29.80 in 8.0 mi SSE 11.5 mph - N/A Rain Rain
11:23 PM 62.6 °F 62.6 °F 100% 29.78 in 10.0 mi SSE 15.0 mph - N/A Rain Light Rain
11:43 PM 64.4 °F 64.4 °F 100% 29.81 in 10.0 mi ESE 5.8 mph - N/A Rain Light Rain
11:48 PM 64.4 °F 64.4 °F 100% 29.80 in 10.0 mi East 5.8 mph - N/A Rain Light Rain
11:58 PM 63.7 °F 63.7 °F 100% 29.81 in 10.0 mi East 5.8 mph - 0.07 in Rain Light Rain